Change the Weather History Date:

Friday, June 28, 2013

  Actual Average Record
Temperature  
Mean Temperature 80 °F -  
Max Temperature 93 °F 91 °F 98 °F (1998)
Min Temperature 63 °F 54 °F 46 °F (2010)
Cooling Degree Days 14    
Growing Degree Days 30 (Base 50)    
Moisture  
Dew Point 45 °F    
Average Humidity 37    
Maximum Humidity 68    
Minimum Humidity 13    
Precipitation  
Precipitation 0.05 in - - ()
Sea Level Pressure  
Sea Level Pressure 30.10 in    
Wind  
Wind Speed 14 mph (East)    
Max Wind Speed 34 mph    
Max Gust Speed 43 mph    
Visibility 9 miles    
Events Rain , Thunderstorm    
Averages and records for this station are not official NWS values.
T = Trace of Precipitation, MM = Missing Value Source: NWS Daily Summary

Daily Weather History Graph

Daily Weather History Graph

Search for Another Location

Airport or City:

Trip Planner

Search our weather history database for the weather conditions in past years. The results will help you decide how hot, cold, wet, or windy it might be!

Date:

Astronomy

Jun. 28, 2013 Rise Set
Actual Time 5:51 AM MDT 8:24 PM MDT
Civil Twilight 5:21 AM MDT 8:54 PM MDT
Nautical Twilight 4:44 AM MDT 9:31 PM MDT
Astronomical Twilight 4:02 AM MDT 10:12 PM MDT
Moon No Moon Rise 11:48 AM MDT
Length of Visible Light 15h 32m
Length of Day
14h 32m
Waning Gibbous, 65% of the Moon is Illuminated
Jun 28
Waning Gibbous
Jun 29
Last Quarter
Jul 8
New
Jul 15
First Quarter
Jul 22
Full

Hourly Weather History & Observations

Time (MDT) Temp. Dew Point Humidity Pressure Visibility Wind Dir Wind Speed Gust Speed Precip Events Conditions
12:53 AM 79.0 °F 27.0 °F 15% 29.87 in 10.0 mi NNW 3.5 mph - N/A   Clear
1:53 AM 82.0 °F 34.0 °F 18% 29.88 in 8.0 mi ENE 15.0 mph 33.4 mph N/A   Clear
2:53 AM 78.1 °F 39.9 °F 25% 29.89 in 10.0 mi NNE 6.9 mph - N/A   Clear
3:53 AM 77.0 °F 39.0 °F 25% 29.91 in 10.0 mi East 6.9 mph - N/A   Clear
4:53 AM 75.9 °F 41.0 °F 29% 29.95 in 10.0 mi East 15.0 mph 24.2 mph N/A   Clear
5:53 AM 73.0 °F 46.0 °F 38% 29.97 in 10.0 mi ESE 15.0 mph 25.3 mph N/A   Clear
6:09 AM 71.6 °F 46.4 °F 41% 30.39 in 8.0 mi SSE 19.6 mph 26.5 mph N/A   Clear
6:53 AM 72.0 °F 48.0 °F 43% 30.02 in 7.0 mi SSE 20.7 mph 28.8 mph N/A   Clear
7:53 AM 75.0 °F 48.0 °F 38% 30.03 in 8.0 mi SE 16.1 mph 28.8 mph N/A   Clear
8:53 AM 79.0 °F 46.0 °F 31% 30.03 in 10.0 mi ESE 16.1 mph - N/A   Clear
9:53 AM 82.0 °F 43.0 °F 25% 30.02 in 10.0 mi SSE 11.5 mph - N/A   Clear
10:53 AM 84.9 °F 39.9 °F 20% 30.01 in 10.0 mi SE 11.5 mph - N/A   Clear
11:53 AM 88.0 °F 39.9 °F 18% 30.00 in 10.0 mi SSE 12.7 mph 20.7 mph N/A   Clear
12:53 PM 89.1 °F 39.9 °F 18% 29.97 in 10.0 mi South 8.1 mph 20.7 mph N/A   Clear
1:53 PM 93.0 °F 37.9 °F 15% 29.91 in 10.0 mi SSE 15.0 mph 24.2 mph N/A   Clear
2:53 PM 93.0 °F 35.1 °F 13% 29.90 in 10.0 mi South 12.7 mph - N/A   Clear
3:53 PM 90.0 °F 32.0 °F 13% 29.90 in 10.0 mi South 6.9 mph - N/A   Clear
4:16 PM 89.6 °F 37.4 °F 16% 30.28 in 8.0 mi East 23.0 mph 32.2 mph N/A Thunderstorm Clear
4:28 PM 87.8 °F 37.4 °F 17% 30.29 in 10.0 mi East 25.3 mph 32.2 mph N/A Thunderstorm Clear
4:53 PM 82.9 °F 37.9 °F 20% 29.98 in 6.0 mi NE 23.0 mph 32.2 mph N/A Thunderstorm Haze
5:13 PM 77.0 °F 44.6 °F 32% 30.38 in 9.0 mi North 23.0 mph 32.2 mph N/A   Overcast
5:29 PM 66.2 °F 55.4 °F 68% 30.41 in 2.5 mi North 18.4 mph 31.1 mph 0.04 in Rain , Thunderstorm Rain
5:36 PM 66.2 °F 53.6 °F 64% 30.40 in 7.0 mi North 27.6 mph 35.7 mph 0.04 in Rain , Thunderstorm Light Rain
5:50 PM 66.2 °F 53.6 °F 64% 30.41 in 10.0 mi North 26.5 mph 35.7 mph 0.04 in Rain Light Rain
5:53 PM 66.9 °F 53.1 °F 61% 30.12 in 10.0 mi NNE 24.2 mph 35.7 mph 0.04 in Rain Light Rain
6:25 PM 69.8 °F 51.8 °F 53% 30.42 in 10.0 mi ENE 34.5 mph 40.3 mph 0.00 in Rain Light Rain
6:33 PM 66.2 °F 53.6 °F 64% 30.42 in 8.0 mi ENE 33.4 mph 42.6 mph 0.00 in Rain Light Rain
6:40 PM 66.2 °F 51.8 °F 60% 30.40 in 7.0 mi East 29.9 mph 42.6 mph 0.00 in Rain Light Rain
6:53 PM 66.0 °F 52.0 °F 60% 30.12 in 10.0 mi East 20.7 mph 29.9 mph 0.01 in Rain Light Rain
7:50 PM 73.4 °F 46.4 °F 38% 30.29 in 10.0 mi ESE 15.0 mph 29.9 mph 0.00 in Rain Light Rain
7:53 PM 73.9 °F 46.0 °F 37% 29.96 in 10.0 mi SSE 8.1 mph - 0.00 in   Mostly Cloudy
8:53 PM 70.0 °F 48.0 °F 46% 29.99 in 10.0 mi West 9.2 mph - N/A   Clear
9:53 PM 66.9 °F 50.0 °F 54% 30.01 in 10.0 mi North 5.8 mph - N/A   Clear
10:53 PM 66.0 °F 51.1 °F 59% 30.01 in 10.0 mi North 9.2 mph - N/A   Clear
11:53 PM 63.0 °F 52.0 °F 67% 30.00 in 10.0 mi North 6.9 mph - N/A   Clear